GLD1974 TLPC-TFFF

Flight info

Callsign GLD1974
Flight time 0h 18m
Altitude 3000
Route KISES A324 FOF
Aircraft C172/L-SFG/C

Departure

Time 2026-05-04 18:40
Airport George F. L. Charles Airport (TLPC)

Arrival

Time 2026-05-04 18:59
Airport Martinique Aimé Césaire International Airport (TFFF)
Time Latitude Longitude Altitude Speed Heading
2026-05-04 18:31 14.02035 -60.99560 4 ft 0 kts 42°
2026-05-04 18:36 14.02037 -60.99556 4 ft 4 kts 78°
2026-05-04 18:36 14.02016 -60.99538 4 ft 6 kts 194°
2026-05-04 18:36 14.01991 -60.99581 4 ft 8 kts 231°
2026-05-04 18:36 14.01943 -60.99626 4 ft 10 kts 218°
2026-05-04 18:37 14.01901 -60.99688 5 ft 11 kts 252°
2026-05-04 18:37 14.01882 -60.99760 7 ft 10 kts 255°
2026-05-04 18:37 14.01864 -60.99832 9 ft 11 kts 252°
2026-05-04 18:37 14.01842 -60.99910 9 ft 12 kts 255°
2026-05-04 18:38 14.01832 -60.99989 9 ft 10 kts 255°
2026-05-04 18:38 14.01825 -60.99966 8 ft 6 kts 56°
2026-05-04 18:38 14.01834 -60.99942 9 ft 10 kts 78°
2026-05-04 18:38 14.01887 -60.99741 7 ft 48 kts 74°
2026-05-04 18:39 14.01986 -60.99365 84 ft 59 kts 82°
2026-05-04 18:39 14.02146 -60.98916 146 ft 74 kts 69°
2026-05-04 18:39 14.02438 -60.98424 222 ft 88 kts 55°
2026-05-04 18:39 14.02934 -60.98008 305 ft 96 kts 46°
2026-05-04 18:40 14.03493 -60.97619 394 ft 100 kts 36°
2026-05-04 18:40 14.04176 -60.97340 475 ft 112 kts 22°
2026-05-04 18:40 14.04978 -60.97318 551 ft 118 kts 359°
2026-05-04 18:40 14.05753 -60.97532 630 ft 113 kts 351°
2026-05-04 18:41 14.06516 -60.97788 696 ft 116 kts 351°
2026-05-04 18:41 14.07270 -60.98065 765 ft 117 kts 351°
2026-05-04 18:41 14.08046 -60.98358 834 ft 119 kts 349°
2026-05-04 18:41 14.08839 -60.98633 905 ft 120 kts 350°
2026-05-04 18:42 14.09625 -60.98891 977 ft 119 kts 351°
2026-05-04 18:42 14.10413 -60.99150 1054 ft 118 kts 351°
2026-05-04 18:42 14.11214 -60.99396 1074 ft 122 kts 349°
2026-05-04 18:42 14.12047 -60.99618 1078 ft 125 kts 351°
2026-05-04 18:43 14.12900 -60.99847 1080 ft 130 kts 350°
2026-05-04 18:43 14.13785 -61.00083 1082 ft 133 kts 352°
2026-05-04 18:43 14.14683 -61.00345 1071 ft 133 kts 351°
2026-05-04 18:43 14.15557 -61.00614 1074 ft 131 kts 351°
2026-05-04 18:44 14.16425 -61.00884 1075 ft 129 kts 350°
2026-05-04 18:44 14.17000 -61.01059 1079 ft 130 kts 349°
2026-05-04 18:44 14.18187 -61.01390 1077 ft 133 kts 350°
2026-05-04 18:44 14.19081 -61.01631 1079 ft 133 kts 350°
2026-05-04 18:45 14.19981 -61.01877 1078 ft 135 kts 351°
2026-05-04 18:45 14.20882 -61.02151 1077 ft 137 kts 349°
2026-05-04 18:45 14.21803 -61.02406 1077 ft 136 kts 350°
2026-05-04 18:45 14.22721 -61.02638 1078 ft 136 kts 350°
2026-05-04 18:46 14.23640 -61.02876 1079 ft 136 kts 351°
2026-05-04 18:46 14.24571 -61.03125 1079 ft 138 kts 351°
2026-05-04 18:46 14.25491 -61.03407 1077 ft 137 kts 350°
2026-05-04 18:46 14.26408 -61.03685 1077 ft 137 kts 350°
2026-05-04 18:47 14.27303 -61.03951 1063 ft 133 kts 350°
2026-05-04 18:47 14.28182 -61.04212 1063 ft 130 kts 350°
2026-05-04 18:47 14.29040 -61.04487 1063 ft 128 kts 351°
2026-05-04 18:47 14.29884 -61.04782 1069 ft 130 kts 349°
2026-05-04 18:48 14.30753 -61.05011 1063 ft 128 kts 355°
2026-05-04 18:48 14.31621 -61.05206 1068 ft 131 kts 354°
2026-05-04 18:48 14.32508 -61.05402 1062 ft 129 kts 355°
2026-05-04 18:48 14.33393 -61.05612 1065 ft 133 kts 354°
2026-05-04 18:49 14.34301 -61.05826 1071 ft 134 kts 355°
2026-05-04 18:49 14.35223 -61.06055 1074 ft 138 kts 354°
2026-05-04 18:49 14.36158 -61.06277 1070 ft 137 kts 355°
2026-05-04 18:49 14.37088 -61.06484 1069 ft 137 kts 355°
2026-05-04 18:50 14.38014 -61.06694 1071 ft 135 kts 355°
2026-05-04 18:50 14.38928 -61.06909 1078 ft 138 kts 355°
2026-05-04 18:50 14.39876 -61.07138 1078 ft 140 kts 354°
2026-05-04 18:50 14.40818 -61.07362 1064 ft 137 kts 353°
2026-05-04 18:51 14.41737 -61.07566 1061 ft 134 kts 355°
2026-05-04 18:51 14.42646 -61.07776 1067 ft 135 kts 354°
2026-05-04 18:51 14.43585 -61.07958 1067 ft 139 kts 355°
2026-05-04 18:51 14.44543 -61.08156 1070 ft 141 kts 356°
2026-05-04 18:52 14.45499 -61.08367 1073 ft 143 kts 353°
2026-05-04 18:52 14.46481 -61.08549 1071 ft 144 kts 355°
2026-05-04 18:52 14.47469 -61.08725 1076 ft 144 kts 355°
2026-05-04 18:52 14.48449 -61.08922 1080 ft 143 kts 354°
2026-05-04 18:53 14.49430 -61.09107 1073 ft 143 kts 354°
2026-05-04 18:53 14.50413 -61.09280 1071 ft 143 kts 355°
2026-05-04 18:53 14.51402 -61.09387 1082 ft 143 kts
2026-05-04 18:53 14.52330 -61.09312 1078 ft 125 kts 14°
2026-05-04 18:54 14.53113 -61.09042 1062 ft 114 kts 36°
2026-05-04 18:54 14.53699 -61.08573 1070 ft 106 kts 54°
2026-05-04 18:54 14.54244 -61.07991 1077 ft 119 kts 54°
2026-05-04 18:54 14.54816 -61.07330 1077 ft 126 kts 55°
2026-05-04 18:55 14.55292 -61.06597 1078 ft 121 kts 77°
2026-05-04 18:55 14.55344 -61.04880 1074 ft 120 kts 101°
2026-05-04 18:55 14.54984 -61.04133 1063 ft 114 kts 118°
2026-05-04 18:56 14.54585 -61.03437 1065 ft 111 kts 108°
2026-05-04 18:56 14.54823 -61.02728 1064 ft 118 kts 41°
2026-05-04 18:56 14.55529 -61.02776 1054 ft 97 kts 321°
2026-05-04 18:56 14.55951 -61.03201 1033 ft 81 kts 321°
2026-05-04 18:57 14.56382 -61.03585 914 ft 90 kts 330°
2026-05-04 18:57 14.56905 -61.03877 857 ft 86 kts 351°
2026-05-04 18:57 14.57470 -61.04040 794 ft 83 kts
2026-05-04 18:57 14.57962 -61.03926 645 ft 67 kts 41°
2026-05-04 18:58 14.58296 -61.03584 473 ft 68 kts 52°
2026-05-04 18:58 14.58513 -61.03194 305 ft 62 kts 64°
2026-05-04 18:58 14.58670 -61.02771 206 ft 64 kts 76°
2026-05-04 18:58 14.58757 -61.02342 132 ft 59 kts 77°
2026-05-04 18:59 14.58832 -61.01929 46 ft 58 kts 80°
2026-05-04 18:59 14.58898 -61.01532 11 ft 50 kts 78°
2026-05-04 18:59 14.58949 -61.01233 8 ft 35 kts 80°
2026-05-04 18:59 14.58982 -61.01035 7 ft 22 kts 80°
2026-05-04 19:00 14.59004 -61.00914 7 ft 13 kts 79°
2026-05-04 19:00 14.59017 -61.00841 7 ft 9 kts 78°
2026-05-04 19:00 14.59028 -61.00775 7 ft 13 kts 81°
2026-05-04 19:00 14.59056 -61.00684 6 ft 13 kts 40°
2026-05-04 19:01 14.59128 -61.00681 5 ft 9 kts 350°
2026-05-04 19:01 14.59175 -61.00690 6 ft 5 kts 347°
2026-05-04 19:01 14.59205 -61.00697 6 ft 4 kts 345°
2026-05-04 19:01 14.59242 -61.00703 6 ft 8 kts 352°
2026-05-04 19:02 14.59298 -61.00713 6 ft 7 kts 13°
2026-05-04 19:02 14.59295 -61.00685 6 ft 2 kts 170°